Date,TemperatureHighF,TemperatureAvgF,TemperatureLowF,DewpointHighF,DewpointAvgF,DewpointLowF,HumidityHigh,HumidityAvg,HumidityLow,PressureMaxIn,PressureMinIn,WindSpeedMaxMPH,WindSpeedAvgMPH,GustSpeedMaxMPH,PrecipitationSumIn
2014-1-1,41.1,30.9,24.7,31.2,25.2,20.3,88,80,64,30.37,30.08,5,0,5,0.00
2014-1-2,31.4,25.7,12.2,28.8,22.8,9.3,91,88,83,30.09,29.70,14,1,14,0.11
2014-1-3,20.3,10.2,0.8,11.8,5.1,-3.2,88,80,62,30.49,29.98,16,1,16,0.01
2014-1-4,40.1,17.5,0.8,21.8,8.7,-3.1,92,72,34,30.44,30.17,14,0,14,0.00
2014-1-5,45.9,29.4,11.3,36.7,24.9,8.4,94,84,65,30.19,29.43,4,0,4,0.01
2014-1-6,47.0,17.3,-5.7,45.9,13.2,-13.2,96,83,69,30.22,29.38,20,2,20,0.26
2014-1-7,5.8,-1.2,-8.0,-2.8,-8.2,-15.7,78,72,65,30.52,30.22,11,1,17,0.00
2014-1-8,25.0,14.2,-3.5,19.2,7.7,-8.1,87,75,62,30.59,30.47,7,0,7,0.00
2014-1-9,38.1,28.7,22.1,28.9,23.6,19.1,90,82,64,30.63,30.38,6,0,6,0.00
2014-1-10,48.2,37.3,32.1,45.1,34.8,28.8,95,91,85,30.39,29.90,6,0,6,0.00
2014-1-11,52.1,44.3,35.4,51.5,41.9,33.5,98,91,77,29.91,29.38,19,1,19,0.36
2014-1-12,40.1,34.3,25.0,33.8,30.0,22.4,90,84,74,30.07,29.69,15,1,15,0.00
2014-1-13,56.6,39.5,24.3,45.6,34.7,21.9,97,85,46,30.03,29.74,11,0,11,0.11
2014-1-14,46.7,39.7,27.6,45.6,37.3,25.2,96,91,78,29.84,29.71,11,0,11,0.07
2014-1-15,36.4,31.6,24.9,35.2,25.7,18.4,96,79,64,30.06,29.80,13,1,13,0.00
2014-1-16,35.3,29.0,20.9,22.7,19.8,16.3,86,69,56,30.03,29.84,13,1,13,0.00
2014-1-17,42.6,32.7,23.8,35.0,28.9,20.5,92,86,64,29.97,29.79,13,0,13,0.22
2014-1-18,23.8,16.4,10.7,21.6,12.5,7.0,91,85,78,30.07,29.91,0,0,0,0.02
2014-1-19,33.1,25.9,16.6,26.6,21.9,13.9,93,85,73,29.92,29.75,15,1,15,0.01
2014-1-20,37.5,33.6,26.5,30.9,27.9,22.0,90,80,73,29.94,29.67,16,1,16,0.00
2014-1-21,26.5,17.5,3.4,22.0,12.7,-2.5,89,81,69,30.12,29.86,18,1,18,0.10
2014-1-22,16.2,3.7,-10.7,6.0,-2.7,-14.9,88,75,60,30.19,30.09,10,0,10,0.00
2014-1-23,17.7,10.3,3.8,10.4,4.9,-0.1,89,79,64,30.54,30.10,18,1,18,0.00
2014-1-24,18.5,8.9,-2.8,5.8,1.0,-7.0,85,71,54,30.58,29.92,17,1,17,0.00
2014-1-25,27.2,21.6,13.4,23.3,15.9,4.3,90,79,49,29.92,29.42,23,2,23,0.12
2014-1-26,24.1,14.3,2.3,20.8,10.0,-2.2,88,83,74,29.91,29.63,12,0,12,0.05
2014-1-27,42.0,19.2,2.1,35.1,11.1,-6.4,95,71,50,30.35,29.56,21,2,21,0.00
2014-1-28,11.5,0.6,-15.2,-2.5,-8.4,-20.5,83,66,51,30.52,30.35,3,0,6,0.00
2014-1-29,20.1,1.6,-15.8,4.0,-7.4,-20.4,87,67,47,30.44,30.33,14,1,15,0.00
2014-1-30,33.6,13.4,-10.0,15.4,1.6,-14.2,89,62,33,30.44,30.03,10,0,10,0.00
2014-1-31,40.9,35.0,29.0,27.6,22.7,12.8,83,62,41,30.20,30.05,10,0,10,0.00
2014-2-1,57.1,38.4,29.4,38.5,31.3,25.3,90,77,49,30.18,29.89,6,0,6,0.00
2014-2-2,38.3,34.6,28.8,37.0,32.7,27.3,95,93,85,30.20,29.91,9,0,9,0.28
2014-2-3,34.7,24.0,6.1,27.9,20.7,2.6,95,87,71,30.40,30.10,8,0,8,0.20
2014-2-4,33.8,20.1,3.6,27.2,16.0,0.2,93,84,72,30.47,30.06,9,0,9,0.13
2014-2-5,37.1,30.0,22.5,36.1,27.6,19.0,96,91,82,30.28,29.62,19,1,19,0.43
2014-2-6,29.6,21.4,14.6,19.5,15.7,10.4,89,79,60,30.44,30.27,10,1,10,0.00
2014-2-7,21.2,16.8,8.5,18.4,12.0,4.0,89,81,67,30.43,30.34,11,1,11,0.00
2014-2-8,27.9,20.4,4.5,14.2,10.3,1.2,88,66,44,30.41,30.23,6,0,6,1.04
2014-2-9,31.6,24.0,18.1,29.3,20.3,13.3,92,86,79,30.24,29.97,13,0,13,0.07
2014-2-10,23.0,14.8,-0.3,15.7,8.8,-4.5,91,77,64,30.41,30.20,9,0,9,0.00
2014-2-11,29.0,8.9,-6.3,15.5,1.5,-9.9,90,73,50,30.53,30.40,6,0,6,0.00
2014-2-12,33.3,13.8,-8.0,15.3,4.4,-12.0,89,68,46,30.53,30.14,11,0,11,0.00
2014-2-13,30.9,27.0,18.6,27.8,22.9,13.9,90,84,67,30.14,29.60,6,0,6,0.14
2014-2-14,38.9,30.0,17.5,27.9,24.0,13.5,92,79,61,29.75,29.55,15,1,15,0.04
2014-2-15,30.8,24.1,3.5,25.6,19.5,-1.8,92,83,62,30.11,29.69,12,1,12,0.12
2014-2-16,28.7,17.7,0.9,24.6,13.9,-3.6,92,85,78,30.37,30.03,10,0,10,0.01
2014-2-17,36.4,18.8,-7.8,27.4,9.5,-11.8,89,69,44,30.48,29.85,17,1,17,0.07
2014-2-18,49.3,36.8,24.3,34.5,30.3,20.7,93,78,52,30.08,29.88,11,1,19,0.07
2014-2-19,51.9,37.8,21.7,46.0,32.7,18.7,97,83,55,30.16,29.72,18,1,18,0.20
2014-2-20,45.1,33.3,18.8,43.1,30.5,16.1,95,89,69,30.17,29.71,6,0,6,0.06
2014-2-21,48.7,40.6,35.0,44.7,33.6,21.5,98,78,52,29.99,29.61,23,2,23,0.15
2014-2-22,55.6,39.2,24.4,29.9,25.6,20.5,89,61,33,30.05,29.96,16,1,17,0.00
2014-2-23,47.4,34.7,27.6,37.6,30.3,23.8,95,85,60,30.07,29.98,12,0,12,0.01
2014-2-24,34.3,27.0,19.7,23.8,14.8,10.0,79,60,40,30.19,30.06,20,1,20,0.00
2014-2-25,27.7,24.1,18.8,21.0,17.4,12.8,85,75,68,30.16,30.01,12,1,12,0.00
2014-2-26,24.7,19.7,10.3,19.7,11.0,4.4,83,69,48,30.11,29.83,14,1,14,0.00
2014-2-27,24.1,16.2,6.0,18.2,7.4,-2.0,84,68,54,30.23,29.71,27,2,27,0.01
2014-2-28,29.6,14.2,-1.5,9.7,3.0,-5.7,88,64,32,30.42,30.23,10,0,10,0.00
2014-3-1,49.0,30.9,13.2,31.5,20.5,8.0,89,68,38,30.24,30.11,11,0,11,0.00
2014-3-2,35.5,26.3,14.9,32.5,22.1,8.4,91,84,74,30.21,30.09,11,1,11,0.21
2014-3-3,26.4,13.1,-0.7,10.5,3.0,-5.5,80,64,48,30.45,30.21,14,1,14,0.00
2014-3-4,37.8,18.3,-1.0,18.2,6.4,-5.6,87,64,29,30.45,30.22,7,0,7,0.00
2014-3-5,35.9,23.9,11.3,18.6,13.8,7.7,90,67,37,30.45,30.23,12,1,12,0.00
2014-3-6,40.7,28.9,18.6,24.8,17.3,10.8,71,62,49,30.47,30.23,8,1,11,0.00
2014-3-7,55.9,35.4,19.2,38.9,26.7,15.5,92,72,49,30.22,29.96,5,0,7,0.00
2014-3-8,52.8,37.2,24.2,40.8,31.4,22.2,96,81,54,30.08,29.95,13,1,13,0.01
2014-3-9,43.5,31.7,21.2,29.6,23.3,16.3,92,72,45,30.25,30.00,13,1,13,0.00
2014-3-10,60.7,44.1,27.4,39.7,33.0,23.0,89,67,43,30.00,29.66,17,1,17,0.00
2014-3-11,70.6,50.0,32.5,49.9,39.9,30.2,96,71,42,29.72,29.59,12,1,12,0.00
2014-3-12,51.7,37.0,19.9,50.9,34.4,15.3,97,90,81,29.80,29.09,22,2,27,0.61
2014-3-13,29.4,19.3,9.6,17.9,10.5,2.8,84,69,48,30.20,29.80,19,2,19,0.05
2014-3-14,61.7,44.6,23.3,37.2,27.2,16.8,78,52,36,30.18,29.76,22,2,22,0.00
2014-3-15,54.0,46.1,34.8,42.3,33.6,27.0,85,63,41,30.14,29.73,21,2,21,0.02
2014-3-16,34.8,28.6,24.7,27.0,16.8,10.5,85,62,44,30.26,30.08,12,1,12,0.00
2014-3-17,37.9,31.4,25.2,26.2,22.0,13.1,82,68,53,30.05,29.93,11,1,11,0.00
2014-3-18,56.6,38.6,22.3,38.2,28.9,18.5,92,69,48,30.09,29.97,12,1,12,0.00
2014-3-19,57.8,43.1,28.3,48.1,38.0,25.4,96,83,61,30.03,29.75,18,1,18,0.04
2014-3-20,46.6,39.0,29.3,43.1,31.0,24.3,88,73,61,30.04,29.82,19,2,19,0.00
2014-3-21,50.4,33.8,21.3,41.8,29.9,18.8,95,86,68,30.15,29.90,6,0,6,0.09
2014-3-22,54.5,44.9,31.8,39.6,34.2,26.0,94,68,48,30.12,29.75,19,2,19,0.00
2014-3-23,35.3,30.6,20.3,29.4,21.0,11.4,88,68,42,30.34,30.10,16,2,16,0.00
2014-3-24,36.4,23.8,10.7,17.0,12.2,6.2,88,63,39,30.37,30.15,12,1,12,0.00
2014-3-25,41.3,29.2,20.0,23.6,18.4,14.9,86,66,41,30.15,29.90,15,1,15,0.00
2014-3-26,29.2,21.9,16.2,20.4,13.5,8.3,85,71,48,30.36,30.05,17,2,17,0.00
2014-3-27,54.4,35.4,13.5,29.3,18.4,9.0,89,56,23,30.37,29.92,13,1,13,0.00
2014-3-28,61.9,55.9,47.2,51.9,42.0,26.3,75,60,36,30.10,29.83,21,3,21,0.01
2014-3-29,60.6,44.4,30.8,51.9,40.8,28.5,95,88,66,30.14,29.69,16,1,16,0.57
2014-3-30,50.1,38.1,32.1,38.2,31.3,24.4,95,78,53,30.13,29.78,25,3,25,0.11
2014-3-31,64.1,42.8,23.9,35.0,27.3,20.5,92,59,25,30.25,30.11,10,0,10,0.00
2014-4-1,78.7,51.6,29.8,46.9,33.9,26.3,92,59,21,30.12,29.84,23,1,23,0.00
2014-4-2,62.0,52.7,43.8,49.4,42.6,26.6,94,72,27,30.14,29.98,10,0,10,0.49
2014-4-3,63.1,52.3,44.5,53.1,46.1,37.5,95,81,56,30.09,29.77,7,0,7,0.32
2014-4-4,66.1,55.3,45.8,63.2,52.6,36.8,98,91,71,29.81,29.51,21,1,21,0.32
2014-4-5,46.6,40.2,29.7,37.1,31.2,25.9,86,70,54,30.22,29.81,20,2,20,0.01
2014-4-6,61.9,41.7,22.6,36.9,29.3,19.8,95,66,31,30.26,30.02,9,0,9,0.00
2014-4-7,57.5,47.0,36.8,49.0,41.7,32.4,93,82,66,30.03,29.40,14,1,14,0.02
2014-4-8,61.1,49.6,37.2,52.5,40.8,32.5,95,75,39,29.74,29.38,14,1,14,0.09
2014-4-9,60.2,45.6,33.4,39.6,33.5,28.9,93,66,36,30.07,29.74,18,1,18,0.00
2014-4-10,72.5,52.1,29.4,42.1,34.9,26.8,94,58,28,30.11,29.84,17,2,17,0.00
2014-4-11,63.8,55.2,42.1,54.6,48.5,38.5,93,80,42,30.10,29.89,14,1,14,0.14
2014-4-12,77.5,55.1,36.9,53.6,41.2,35.3,97,67,26,30.22,29.94,13,1,13,0.00
2014-4-13,84.1,64.1,45.8,59.5,50.8,43.6,96,66,35,30.00,29.81,20,1,20,0.00
2014-4-14,74.8,66.5,56.0,60.6,55.8,51.1,92,69,50,29.81,29.59,18,1,18,0.04
2014-4-15,63.2,41.0,28.7,57.1,37.3,22.7,94,87,79,30.20,29.46,24,2,24,0.16
2014-4-16,48.1,34.4,22.8,27.5,22.3,18.5,90,64,35,30.53,30.19,10,1,10,0.00
2014-4-17,67.8,47.1,27.4,39.6,29.7,22.7,87,55,29,30.50,30.34,6,1,14,0.00
2014-4-18,70.8,50.8,31.8,44.2,35.8,27.7,92,61,29,30.37,30.18,10,0,10,0.00
2014-4-19,65.3,48.3,38.1,44.8,38.4,33.1,94,72,33,30.35,30.22,13,1,13,0.00
2014-4-20,77.3,53.6,30.7,41.6,34.5,27.3,93,56,19,30.36,30.15,12,1,12,0.00
2014-4-21,81.5,58.7,34.1,47.8,40.1,30.6,93,57,22,30.16,29.79,11,0,11,0.00
2014-4-22,71.3,57.0,47.8,60.3,50.0,37.5,93,78,57,29.79,29.58,17,1,17,0.07
2014-4-23,51.7,43.8,32.9,39.0,35.2,28.1,83,72,54,30.11,29.79,16,2,16,0.00
2014-4-24,64.0,44.2,24.5,35.1,28.3,21.0,92,59,24,30.22,29.94,8,0,8,0.00
2014-4-25,64.5,50.8,36.1,56.5,44.6,31.5,92,80,43,29.94,29.64,15,1,15,0.26
2014-4-26,71.8,54.0,38.3,51.2,42.4,34.4,96,69,41,30.01,29.78,21,2,21,0.00
2014-4-27,67.5,48.4,30.8,43.3,36.5,27.7,93,67,33,30.13,30.01,9,0,9,0.00
2014-4-28,62.3,51.4,41.9,52.8,44.6,36.4,96,79,52,30.04,29.83,8,0,11,0.42
2014-4-29,59.6,52.9,50.1,53.8,49.7,46.1,96,89,76,29.99,29.77,13,2,14,0.12
2014-4-30,64.6,55.3,50.2,59.8,52.7,46.4,96,91,83,29.96,29.74,11,0,11,0.69
2014-5-1,61.9,55.9,48.3,57.2,49.5,40.2,97,81,52,29.85,29.78,15,1,15,0.01
2014-5-2,55.6,51.1,46.7,45.1,42.8,39.0,87,74,61,29.88,29.79,17,1,17,0.00
2014-5-3,63.9,52.2,39.8,54.3,44.3,36.9,95,76,53,29.86,29.73,18,1,18,0.09
2014-5-4,68.3,55.1,45.2,50.0,42.4,33.7,92,65,33,30.05,29.79,20,1,20,0.00
2014-5-5,62.1,46.6,31.2,44.5,38.0,27.9,94,74,43,30.10,29.91,6,0,6,0.15
2014-5-6,74.7,55.7,37.4,50.5,43.6,35.7,96,70,34,30.01,29.91,10,0,10,0.00
2014-5-7,78.7,57.0,38.0,65.3,51.0,35.3,97,82,58,30.16,29.96,14,0,14,0.19
2014-5-8,88.3,67.9,48.3,67.0,57.1,46.0,97,72,40,30.07,29.96,18,1,18,0.00
2014-5-9,84.7,69.9,51.1,65.2,58.3,49.2,97,70,44,30.03,29.81,16,1,16,0.00
2014-5-10,68.5,63.6,56.8,62.8,60.3,55.7,96,89,79,29.99,29.87,14,0,14,1.12
2014-5-11,78.3,63.0,50.0,62.6,56.8,48.6,98,82,53,30.15,29.99,7,0,7,0.00
2014-5-12,81.4,66.4,56.9,71.6,63.1,54.6,97,90,63,30.11,30.03,10,0,10,0.63
2014-5-13,91.5,74.4,58.8,73.9,65.7,57.4,98,77,46,30.11,29.95,12,0,12,0.03
2014-5-14,85.2,71.8,62.6,72.4,65.8,60.7,97,83,57,30.08,29.89,17,0,17,0.07
2014-5-15,66.7,62.4,52.2,65.5,60.7,50.8,96,94,91,29.98,29.81,10,0,10,1.26
2014-5-16,62.6,51.7,45.5,51.2,46.6,44.0,96,84,55,30.01,29.90,9,0,10,0.21
2014-5-17,58.4,49.0,43.1,51.3,45.8,41.8,96,89,64,30.13,29.99,13,0,13,0.08
2014-5-24,79.1,69.5,51.6,60.4,54.4,48.0,88,60,45,30.15,30.08,9,0,9,0.00
2014-5-25,82.8,61.0,42.9,59.8,51.0,40.7,97,74,38,30.19,30.08,7,0,7,0.00
2014-5-26,86.8,67.1,47.0,64.4,55.9,45.1,97,72,39,30.14,29.97,12,0,12,0.00
2014-5-27,87.2,69.2,59.4,73.3,63.5,56.6,97,83,57,29.99,29.84,16,1,16,0.08
2014-6-1,86.3,74.0,59.2,71.5,62.3,56.8,92,69,47,30.17,30.06,0,0,0,0.00
2014-6-2,81.7,70.2,58.6,71.8,64.8,56.5,96,84,68,30.12,29.95,0,0,0,0.00
2014-6-3,85.8,73.5,63.1,73.4,67.9,61.3,97,84,60,29.95,29.81,0,0,0,0.08
2014-6-4,76.6,65.6,54.6,67.5,61.7,52.9,97,88,67,29.90,29.65,0,0,0,0.33
2014-6-5,69.4,60.7,50.9,59.4,53.5,47.9,95,78,62,29.93,29.66,0,0,0,0.04
2014-6-6,76.8,53.9,44.5,59.0,49.9,42.9,97,87,50,30.01,29.91,0,0,0,0.00
2014-6-7,84.7,73.1,52.9,65.5,58.5,50.5,97,64,38,30.07,29.90,0,0,0,0.00
2014-6-8,79.2,64.1,53.5,70.1,59.7,51.7,97,86,70,29.90,29.74,0,0,0,0.00
2014-6-9,70.9,66.3,59.7,64.8,61.8,57.4,92,86,79,29.93,29.89,0,0,0,0.00
2014-6-10,76.3,66.6,56.1,67.5,61.8,54.7,97,85,69,29.93,29.87,0,0,0,0.00
2014-6-11,67.5,64.3,61.6,65.2,62.7,59.7,97,94,90,29.92,29.77,0,0,0,0.31
2014-6-12,82.8,72.1,64.9,74.9,67.9,63.4,98,87,68,29.84,29.73,0,0,0,0.45
2014-6-13,80.8,68.0,56.7,71.2,64.5,54.9,96,89,68,29.93,29.73,0,0,0,1.01
2014-6-14,75.1,62.0,49.6,60.5,54.5,48.2,97,78,53,30.10,29.93,0,0,0,0.00
2014-6-17,72.7,72.4,72.1,66.7,66.6,66.4,83,82,81,29.95,29.94,0,0,0,0.00
2014-6-18,88.4,76.4,67.6,77.4,70.8,64.9,96,84,66,30.03,29.93,14,0,14,0.68
2014-6-19,71.9,67.5,64.1,71.3,66.0,61.9,98,95,91,30.05,29.93,12,0,12,0.16
2014-6-20,84.7,69.1,60.9,72.6,65.8,59.3,97,90,61,30.06,29.87,5,0,5,0.01
2014-6-21,75.5,69.4,65.1,70.6,67.2,63.9,97,93,80,29.88,29.82,7,0,7,0.08
2014-6-22,82.0,69.2,58.0,71.6,64.7,56.6,97,87,64,29.94,29.87,5,0,5,0.00
2014-6-23,63.6,61.2,59.0,61.2,59.3,57.3,94,93,92,29.95,29.92,1,0,1,0.00
2014-6-24,88.6,79.7,63.7,76.0,71.3,62.2,97,76,61,29.99,29.85,11,1,11,0.00
2014-6-25,77.8,72.2,66.2,74.1,69.8,63.9,97,92,82,29.91,29.83,11,0,11,0.09
2014-6-26,80.8,67.0,60.2,70.7,63.4,58.8,97,89,66,30.01,29.90,7,0,7,0.00
2014-6-27,88.0,70.3,58.3,72.3,64.0,56.5,97,83,48,30.08,30.01,4,0,4,0.00
2014-6-28,91.9,75.8,61.4,75.8,67.5,59.7,97,78,51,30.16,30.07,7,0,7,0.00
2014-6-29,85.7,74.6,65.0,76.7,69.8,63.4,96,86,67,30.14,29.98,7,0,7,0.00
2014-7-1,89.9,81.7,67.9,78.6,74.7,67.0,97,80,64,29.83,29.75,11,1,11,0.00
2014-7-2,88.4,77.5,68.0,75.0,70.6,65.3,96,81,59,29.88,29.76,11,0,11,0.00
2014-7-3,81.6,78.4,67.6,69.2,66.9,63.4,92,69,58,29.94,29.88,9,0,15,0.07
2014-7-4,77.4,66.0,52.9,60.3,55.2,48.3,93,70,47,30.26,30.05,13,1,13,0.00
2014-7-5,83.8,65.2,46.2,61.8,54.0,44.0,96,71,33,30.30,30.14,6,0,6,0.00
2014-7-6,83.8,66.3,51.6,68.8,60.0,49.8,96,82,45,30.14,29.90,11,0,11,0.02
2014-7-7,87.2,75.5,61.9,72.6,66.3,60.2,96,75,58,29.90,29.73,16,1,16,0.00
2014-7-8,77.2,72.2,68.1,73.3,68.0,64.3,95,87,76,29.81,29.64,12,0,12,0.24
2014-7-9,85.7,71.6,61.1,70.2,64.5,59.5,97,81,49,29.97,29.78,13,0,13,0.07
2014-7-10,85.4,71.0,57.6,70.0,62.9,55.6,96,78,52,30.09,29.97,7,0,7,3.16
2014-7-11,63.9,58.7,56.2,62.5,56.6,54.2,97,93,90,30.16,30.09,1,0,1,0.00
2014-7-12,90.4,74.6,60.1,72.2,65.4,58.1,96,76,46,30.16,30.01,9,0,9,0.00
2014-7-13,75.3,70.2,66.5,73.4,68.0,64.4,94,93,89,30.02,29.85,6,0,6,0.62
2014-7-14,82.3,72.1,70.3,76.3,70.7,68.8,97,95,80,29.90,29.80,7,0,8,0.48
2014-7-15,83.8,72.5,58.6,70.4,63.8,55.4,97,76,49,29.83,29.72,12,0,12,0.00
2014-7-16,78.5,64.4,51.0,60.6,56.0,49.0,96,76,47,29.98,29.83,7,0,7,0.00
2014-7-17,79.3,64.4,50.3,63.0,56.9,48.4,96,78,49,30.15,29.98,9,0,9,0.00
2014-7-18,81.2,65.5,50.1,67.8,59.5,48.1,96,82,56,30.22,30.14,8,0,8,0.05
2014-7-19,68.5,65.7,63.4,67.6,64.2,61.8,97,95,92,30.18,30.06,9,0,9,0.50
2014-7-20,84.3,71.8,63.3,72.4,67.0,62.1,97,86,63,30.08,29.99,5,0,5,0.00
2014-7-21,87.3,74.4,63.6,78.1,69.8,62.2,97,87,66,30.11,30.02,5,0,5,0.00
2014-7-22,91.7,76.7,63.0,77.9,70.2,61.5,97,82,56,30.11,29.97,7,0,7,0.00
2014-7-23,88.4,75.3,66.3,77.2,69.7,62.3,97,84,60,29.98,29.84,10,0,13,0.01
2014-7-24,80.2,69.2,59.1,64.8,60.5,54.1,93,75,51,30.02,29.91,10,0,10,0.00
2014-7-25,84.9,66.3,48.5,62.7,56.0,46.2,96,73,39,30.10,29.96,10,0,10,0.00
2014-7-26,87.5,71.8,61.4,69.7,64.5,58.5,96,80,51,29.99,29.81,11,0,11,0.60
2014-7-27,83.0,71.6,67.0,76.2,69.3,65.8,97,93,74,29.86,29.58,9,0,9,0.93
2014-7-28,69.7,64.0,55.0,67.1,61.9,52.8,97,93,86,29.92,29.56,15,0,15,0.20
2014-7-29,71.5,58.2,47.3,60.2,53.9,45.7,97,86,63,30.03,29.91,6,0,6,0.00
2014-7-30,78.3,60.5,47.5,66.2,56.2,45.9,97,86,62,30.05,29.98,9,0,9,0.02
2014-7-31,81.5,66.3,53.5,70.0,61.3,51.8,97,85,61,30.09,30.02,13,0,13,0.00
2014-8-1,87.8,65.8,55.6,71.2,61.3,54.2,97,87,54,30.13,30.07,1,0,1,0.00
2014-8-2,86.8,71.7,63.2,71.1,65.5,61.5,96,83,53,30.09,29.98,4,0,4,0.63
2014-8-3,76.2,68.0,62.7,73.2,65.7,60.8,97,93,77,30.08,30.02,11,0,11,0.33
2014-8-4,86.8,70.0,58.0,72.0,64.2,56.6,97,84,52,30.13,30.03,4,0,4,0.00
2014-8-5,89.1,70.5,57.7,73.0,64.4,56.2,97,83,50,30.06,29.95,2,0,2,0.00
2014-8-6,83.4,69.2,59.9,72.7,65.5,57.2,97,89,64,29.98,29.91,12,0,12,0.13
2014-8-7,83.3,66.4,52.2,68.2,59.8,50.5,97,82,52,30.07,29.98,6,0,6,0.00
2014-8-8,84.7,67.0,52.3,67.7,59.3,50.6,97,79,46,30.12,30.02,1,0,1,0.00
2014-8-9,87.3,69.4,53.9,73.6,63.5,52.2,97,83,58,30.07,30.00,6,0,6,0.00
2014-8-10,84.5,62.6,58.0,71.0,60.0,56.3,95,92,61,30.06,29.96,4,0,5,0.00
2014-8-11,74.1,67.5,63.0,70.4,64.9,60.8,96,91,81,30.02,29.82,11,0,11,0.16
2014-8-12,83.7,69.7,64.2,75.4,67.3,61.6,97,93,68,29.84,29.67,11,0,11,0.57
2014-8-13,74.3,65.0,54.9,64.7,60.9,52.5,97,87,62,29.95,29.78,11,0,13,0.02
2014-8-14,77.8,62.6,51.1,63.5,54.1,47.5,97,76,45,29.99,29.89,15,0,15,0.00
2014-8-15,75.0,59.5,45.5,60.1,51.7,43.6,96,77,49,30.03,29.97,9,0,9,0.00
2014-8-16,82.3,63.3,44.6,61.6,54.0,42.7,96,75,42,30.02,29.92,5,0,5,0.00
2014-8-17,85.0,71.1,62.7,72.2,66.5,60.6,96,86,61,29.96,29.89,7,0,7,0.00
2014-8-18,87.5,73.3,64.3,74.9,68.1,62.8,97,85,63,29.92,29.74,3,0,3,0.00
2014-8-19,90.0,74.6,63.7,74.2,67.4,62.1,96,80,51,29.83,29.76,6,0,6,0.00
2014-8-20,85.0,71.2,65.2,74.2,67.7,64.0,97,89,65,29.96,29.81,11,0,11,1.40
2014-8-21,79.8,69.6,61.1,72.9,66.8,59.8,97,91,78,30.03,29.95,7,0,7,0.00
2014-8-22,86.3,74.1,66.5,76.6,70.4,65.3,97,89,71,30.00,29.88,2,0,2,0.02
2014-8-23,88.5,74.5,67.3,74.9,69.4,64.8,97,86,56,30.01,29.90,7,0,7,0.00
2014-8-24,85.2,71.0,60.0,71.5,64.7,58.4,97,82,60,30.10,30.00,4,0,4,0.00
2014-8-25,85.2,68.3,55.7,69.2,61.3,54.2,97,81,52,30.15,30.08,1,0,1,0.00
2014-8-26,88.2,69.7,53.1,72.5,62.7,51.4,97,81,52,30.16,30.01,7,0,7,0.00
2014-8-27,90.4,72.5,61.3,79.2,68.4,59.6,97,88,63,30.06,29.92,11,0,11,0.71
2014-8-28,79.8,66.3,55.2,64.4,59.1,52.3,96,79,51,30.13,30.00,6,0,6,0.00
2014-8-29,84.1,64.1,47.3,65.0,56.2,45.6,96,78,44,30.16,30.05,6,0,6,0.00
2014-8-30,90.4,71.5,57.2,76.6,66.0,55.4,97,84,55,30.10,29.97,4,0,4,0.00
2014-8-31,76.1,71.4,68.6,74.2,69.8,66.4,97,95,90,30.03,29.96,12,0,12,1.19
2014-9-1,85.1,74.3,68.1,76.2,71.0,66.9,97,90,70,29.99,29.88,5,0,5,0.00
2014-9-2,84.2,76.0,67.1,76.2,71.4,64.7,97,86,72,29.95,29.80,5,0,5,0.01
2014-9-3,85.2,70.7,60.3,73.0,65.6,58.9,97,85,58,30.08,29.93,1,0,2,0.00
2014-9-4,90.6,72.4,57.5,76.3,66.1,56.1,97,82,54,30.10,30.01,5,0,6,0.00
2014-9-5,90.7,74.2,62.6,78.3,69.2,61.2,97,86,59,30.13,29.96,2,0,3,0.00
2014-9-6,88.1,72.0,61.5,75.8,67.5,59.8,97,87,63,30.07,29.89,0,0,0,0.02
2014-9-7,79.3,62.9,49.3,61.4,55.8,47.7,97,80,49,30.19,30.06,3,0,6,0.00
2014-9-8,81.9,63.2,46.9,65.3,56.4,45.3,97,80,53,30.18,30.09,7,0,7,0.00
2014-9-9,83.2,69.7,60.7,70.5,63.6,58.4,93,82,61,30.13,29.99,4,0,5,0.00
2014-9-10,84.9,72.2,60.2,73.0,66.3,58.8,97,83,63,30.02,29.78,6,0,8,0.00
2014-9-11,75.6,68.9,58.4,69.7,64.8,55.3,96,87,74,30.09,29.73,11,0,15,0.14
2014-9-12,63.7,58.3,51.9,56.6,54.1,49.5,95,86,74,30.19,30.08,6,0,12,0.00
2014-9-13,70.0,57.1,46.1,59.6,52.4,43.0,97,85,58,30.31,30.02,5,0,6,0.00
2014-9-14,70.3,52.7,38.6,55.1,46.1,36.8,96,80,51,30.34,30.20,0,0,3,0.00
2014-9-15,72.2,55.4,39.6,58.9,49.3,37.8,96,82,53,30.25,30.03,1,0,1,0.00
2014-9-16,70.7,59.6,48.8,58.4,54.2,46.1,95,83,59,30.10,30.02,9,0,9,0.00
2014-9-17,74.7,56.8,43.9,59.3,50.6,42.3,96,82,51,30.07,29.94,2,0,2,0.00
2014-9-18,75.3,58.4,48.6,57.4,50.3,45.7,96,78,43,30.15,29.97,7,0,7,0.00
2014-9-19,78.2,59.1,42.2,62.2,52.6,40.3,96,81,54,30.22,30.11,4,0,4,0.00
2014-9-20,81.1,65.3,51.6,68.5,59.4,50.0,97,83,61,30.14,29.92,4,0,5,0.00
2014-9-21,79.7,65.6,57.8,70.7,60.6,51.4,97,85,54,29.94,29.61,11,0,14,0.44
2014-9-22,61.1,55.4,44.6,53.4,48.6,41.0,90,78,62,30.27,29.84,10,0,11,0.00
2014-9-23,74.2,53.1,36.7,55.4,45.0,34.9,96,77,44,30.38,30.27,0,0,0,0.00
2014-9-25,72.7,61.5,55.4,62.9,57.3,52.6,91,86,71,30.25,30.22,0,0,0,0.00
2014-9-26,83.3,62.2,50.0,64.3,54.3,48.3,96,78,40,30.28,30.18,0,0,0,0.00
2014-9-27,82.5,60.7,44.2,62.6,53.3,42.3,96,79,47,30.27,30.15,0,0,0,0.00
2014-9-28,76.3,60.0,45.8,65.4,54.7,44.0,96,84,62,30.19,30.04,0,0,0,0.00
2014-9-29,84.5,64.1,50.4,67.3,58.2,48.7,96,83,46,30.04,29.88,0,0,0,0.00
2014-9-30,77.5,60.4,49.3,65.9,56.2,47.6,97,87,58,29.94,29.85,0,0,0,0.02
2014-10-1,73.0,59.5,51.2,63.5,56.4,49.0,97,90,68,30.04,29.93,0,0,0,0.00
2014-10-2,81.9,61.2,48.0,63.9,54.9,46.6,97,82,48,30.12,29.96,0,0,0,0.00
2014-10-3,77.8,61.5,50.4,66.3,58.7,49.0,97,91,63,29.96,29.62,1,0,1,0.27
2014-10-4,59.9,48.4,41.5,58.4,44.2,37.5,95,86,66,29.83,29.63,14,0,16,0.07
2014-10-5,53.7,45.3,36.0,42.5,38.6,33.6,94,78,56,29.91,29.80,10,0,10,0.00
2014-10-6,69.4,53.8,42.5,57.0,49.5,40.1,95,86,58,29.91,29.75,9,0,10,0.06
2014-10-7,68.1,57.0,48.7,56.7,53.4,47.0,96,89,63,29.92,29.71,14,0,14,0.00
2014-10-8,67.2,56.6,47.8,57.8,49.6,44.2,97,80,48,29.98,29.81,16,0,18,0.23
2014-10-9,43.6,43.3,43.2,40.7,40.5,40.3,90,90,89,30.11,30.10,0,0,0,0.00
2014-10-10,59.7,51.4,41.3,54.8,48.0,38.9,96,89,74,30.11,30.04,3,0,3,0.01
2014-10-11,65.1,52.3,42.4,49.7,45.4,38.5,95,79,51,30.21,30.00,5,0,5,0.04
2014-10-12,68.0,50.5,32.1,55.0,44.8,29.8,95,82,60,30.21,30.10,4,0,4,0.00
2014-10-13,74.7,61.1,51.6,69.1,58.1,48.7,96,90,75,30.13,30.01,0,0,0,0.05
2014-10-14,80.6,65.4,51.5,71.1,59.1,50.1,97,82,55,30.02,29.68,11,0,11,0.11
2014-10-15,66.5,58.9,53.8,61.3,56.2,51.8,96,91,77,29.84,29.71,6,0,8,0.68
2014-10-16,62.0,55.6,51.6,56.2,52.9,49.7,96,91,76,29.76,29.70,5,0,5,0.05
2014-10-17,71.2,59.9,50.7,56.4,53.7,49.3,96,81,56,29.76,29.58,13,0,13,0.00
2014-10-18,62.4,52.4,46.2,52.2,46.1,42.6,89,79,68,29.98,29.62,15,1,15,0.01
2014-10-19,58.2,46.3,36.0,43.1,38.0,33.0,89,74,50,30.17,29.97,14,0,14,0.00
2014-10-20,58.6,47.0,35.0,47.8,41.6,32.4,95,82,63,30.09,29.86,7,0,7,0.01
2014-10-21,54.9,51.0,49.4,52.0,49.1,47.2,96,93,82,29.88,29.83,9,0,9,0.02
2014-10-23,58.0,47.7,40.9,46.7,42.0,37.9,89,81,66,30.10,30.05,3,0,3,0.00
2014-10-24,63.7,45.3,34.3,50.7,39.4,32.4,96,82,52,30.12,29.99,6,0,6,0.00
2014-10-25,68.3,53.6,38.2,56.0,48.1,35.6,96,83,60,30.03,29.75,14,0,14,0.00
2014-10-26,65.7,49.9,34.3,46.4,37.1,30.6,92,65,35,29.97,29.77,12,0,14,0.00
2014-10-27,75.6,48.9,29.0,51.6,38.7,27.2,95,73,33,30.08,29.90,1,0,1,0.00
2014-10-28,78.9,66.3,48.1,61.9,56.4,45.0,96,72,49,29.94,29.81,19,0,19,0.02
2014-10-29,61.2,53.0,40.0,52.4,43.5,34.1,93,71,49,30.04,29.92,14,0,14,0.00
2014-10-30,52.0,42.6,31.7,44.7,37.1,29.4,95,81,64,30.12,30.04,6,0,6,0.00
2014-10-31,48.1,43.9,41.9,42.5,40.6,39.3,94,88,75,30.05,29.86,5,0,5,0.10
2014-11-1,43.9,40.7,34.1,42.0,38.1,29.1,95,90,81,30.18,29.88,16,1,16,0.05
2014-11-2,49.7,37.4,26.9,32.6,27.9,24.0,89,70,43,30.37,30.18,14,1,14,0.00
2014-11-3,57.0,38.5,23.2,35.4,27.9,21.2,95,71,31,30.41,30.21,6,0,6,0.00
2014-11-4,69.0,51.4,31.5,42.2,33.4,29.2,94,57,26,30.25,30.02,1,0,1,0.00
2014-11-5,60.9,51.3,43.6,51.1,45.5,39.7,94,81,50,30.19,30.05,7,0,7,0.04
2014-11-6,56.2,47.3,44.6,54.3,45.5,42.7,96,93,79,30.05,29.67,14,0,16,0.77
2014-11-7,45.0,38.6,26.6,43.7,34.0,23.9,95,84,63,30.08,29.80,15,1,15,0.07
2014-11-8,52.4,39.5,24.7,40.5,31.4,23.0,95,75,52,30.07,29.81,13,0,13,0.00
2014-11-9,53.7,43.8,36.8,39.3,36.1,31.1,89,75,52,30.01,29.93,12,1,12,0.00
2014-11-10,67.0,46.9,32.8,43.3,37.5,30.3,94,74,37,30.09,29.91,7,0,10,0.00
2014-11-11,73.7,49.9,31.5,46.7,38.4,29.3,96,70,32,29.96,29.80,17,0,17,0.00
2014-11-12,59.3,42.1,36.4,54.3,35.6,29.2,91,78,65,30.21,29.81,10,0,10,0.03
2014-11-13,36.4,33.7,28.7,29.2,27.6,22.6,84,78,75,30.20,30.11,0,0,0,0.00
2014-11-14,37.7,29.7,22.6,23.6,20.9,17.7,82,70,51,30.36,30.18,0,0,0,0.00
2014-11-15,40.4,27.7,18.0,25.1,19.6,14.9,91,73,45,30.46,30.29,0,0,0,0.00
2014-11-16,41.2,34.8,23.6,34.7,29.5,19.7,90,81,66,30.30,29.91,0,0,0,0.09
2014-11-17,40.8,33.9,20.0,39.5,31.2,12.7,95,90,73,29.95,29.60,10,0,10,0.29
2014-11-18,24.9,18.9,15.3,13.2,9.5,7.1,78,67,55,30.28,29.95,15,0,15,0.00
2014-11-19,38.2,25.4,11.4,28.4,16.4,6.2,85,69,53,30.31,29.93,0,0,0,0.00
2014-11-20,37.9,28.9,22.6,28.8,19.0,13.8,80,66,52,30.20,29.96,0,0,0,0.00
2014-11-21,32.6,21.8,13.2,19.3,13.3,8.9,90,70,47,30.55,30.19,0,0,0,0.00
2014-11-22,47.2,29.9,10.3,35.0,22.2,6.7,93,74,51,30.50,30.14,0,0,0,0.00
2014-11-23,65.7,50.7,35.9,52.8,42.3,32.3,94,74,54,30.15,29.46,9,0,9,0.23
2014-11-24,69.3,58.4,40.4,55.9,44.8,32.4,95,62,47,29.88,29.37,20,0,20,0.03
2014-11-25,52.1,38.9,27.3,36.5,30.7,23.3,89,74,49,30.22,29.88,0,0,0,0.00
2014-11-26,34.3,32.2,27.7,32.2,30.0,24.6,94,92,88,30.21,30.03,2,0,2,0.07
2014-11-27,39.0,32.9,29.1,34.4,29.8,25.8,95,89,75,30.26,30.02,13,1,13,0.00
2014-11-28,31.2,27.8,25.6,26.2,21.2,18.0,88,76,63,30.39,30.22,17,0,17,0.00
2014-11-29,51.0,40.6,28.1,43.0,30.4,22.1,83,68,48,30.24,29.96,2,0,2,0.00
2014-11-30,62.6,58.5,51.0,53.0,49.8,43.0,77,73,69,30.02,29.91,17,1,17,0.00
2014-12-1,61.3,42.8,29.0,55.0,39.5,23.3,94,88,74,30.54,30.01,14,1,14,0.18
2014-12-2,43.2,35.3,28.0,42.1,32.3,22.8,96,88,79,30.52,30.12,7,0,7,0.02
2014-12-3,44.5,37.2,25.7,43.4,34.8,23.7,96,91,80,30.37,30.10,14,1,14,0.00
2014-12-4,36.9,29.9,24.7,32.6,26.7,22.7,95,88,72,30.48,30.37,3,0,3,0.00
2014-12-5,44.9,39.4,30.0,43.8,37.6,27.4,96,93,87,30.38,30.12,2,0,2,0.23
2014-12-6,45.6,41.4,34.8,44.5,39.6,30.1,96,94,80,30.47,30.04,18,1,18,0.59
2014-12-7,44.0,32.9,25.8,31.1,26.5,23.0,91,78,53,30.63,30.47,9,0,9,0.00
2014-12-8,42.2,32.9,25.4,29.5,25.0,20.0,91,74,44,30.50,30.19,10,0,10,0.00
2014-12-9,47.1,36.2,25.8,39.3,32.1,23.3,95,85,68,30.19,30.03,14,0,14,0.00
2014-12-10,38.0,33.6,29.2,35.1,30.2,24.4,93,87,81,30.09,29.99,18,2,18,0.00
2014-12-11,33.0,30.1,26.9,25.4,21.8,16.5,84,72,51,30.10,29.98,18,2,18,0.00
2014-12-12,31.4,28.2,21.6,26.1,23.7,18.5,91,83,78,30.26,30.10,7,1,12,0.00
2014-12-13,37.3,31.4,23.9,36.0,29.6,21.7,95,93,91,30.28,30.11,7,0,11,0.00
2014-12-14,42.8,40.7,37.3,41.7,39.6,36.0,96,96,95,30.13,30.07,6,0,6,0.00
2014-12-15,48.0,40.6,30.9,45.6,38.6,28.6,96,93,85,30.12,29.89,6,0,6,0.00
2014-12-16,52.5,43.0,31.1,51.3,41.1,29.3,97,93,85,29.95,29.74,15,1,15,0.26
2014-12-17,41.9,35.2,29.0,40.0,31.1,23.0,93,85,78,30.19,29.94,17,2,17,0.00
2014-12-18,29.4,28.7,28.2,24.8,23.9,22.3,86,82,76,30.25,30.19,10,0,10,0.00
2014-12-19,31.2,29.7,28.2,28.4,26.2,23.8,91,87,78,30.33,30.19,5,0,5,0.00
2014-12-20,35.7,29.4,27.4,26.0,23.6,22.1,85,79,65,30.33,30.26,2,0,2,0.00
2014-12-21,39.1,29.6,20.6,28.8,24.2,17.6,88,81,63,30.38,30.21,0,0,0,0.00
2014-12-22,51.4,33.3,18.0,38.7,28.2,15.6,94,82,59,30.21,29.96,3,0,3,0.01
2014-12-23,56.2,45.0,35.7,52.2,42.7,33.6,96,92,86,29.96,29.82,2,0,3,0.14
2014-12-24,59.4,49.7,41.7,57.7,48.0,38.7,97,94,87,29.82,29.33,22,1,22,0.11
2014-12-25,41.7,39.4,36.9,38.8,34.7,32.1,91,83,75,30.25,29.66,15,1,15,0.01
2014-12-26,52.3,37.0,25.6,39.2,31.2,22.8,94,80,55,30.34,30.20,11,0,11,0.00
2014-12-27,59.4,43.7,28.0,44.5,34.8,26.0,96,74,43,30.29,29.98,14,0,14,0.00
2014-12-28,50.7,40.0,33.4,45.0,37.9,31.5,94,92,79,30.18,29.92,10,0,10,0.10
2014-12-29,40.5,32.7,24.8,31.8,26.7,19.1,94,79,62,30.37,30.17,10,0,11,0.00
2014-12-30,35.7,25.4,22.7,22.7,19.3,14.3,87,78,47,30.50,30.37,11,0,11,0.00
2014-12-31,28.7,23.5,19.8,14.3,11.5,8.3,72,60,45,30.50,30.27,14,1,14,0.00
2015-1-1,37.9,28.4,20.3,21.9,15.0,8.3,62,57,51,30.27,30.06,18,2,18,0.00
2015-1-2,39.9,30.0,20.7,25.4,21.5,17.1,86,71,55,30.43,30.19,12,0,12,0.00